Time,TemperatureF,DewpointF,PressureIn,WindDirection,WindDirectionDegrees,WindSpeedMPH,WindSpeedGustMPH,Humidity,HourlyPrecipIn,Conditions,Clouds,dailyrainin,SoftwareType,DateUTC
2013-02-04 00:02:00,30.0,-99.9,-100.00,NW,312,1.0,-999.0,-999,-99.99,,,-99.99,,2013-02-04 06:02:00,
2013-02-04 00:11:00,29.0,-99.9,-100.00,North,0,0.0,-999.0,-999,-99.99,,,-99.99,,2013-02-04 06:11:00,
2013-02-04 00:22:00,28.0,-99.9,-100.00,North,0,0.0,-999.0,-999,-99.99,,,-99.99,,2013-02-04 06:22:00,
2013-02-04 00:32:00,26.0,-99.9,-100.00,North,0,0.0,-999.0,-999,-99.99,,,-99.99,,2013-02-04 06:32:00,
2013-02-04 00:52:00,28.0,-99.9,-100.00,North,0,0.0,-999.0,-999,-99.99,,,-99.99,,2013-02-04 06:52:00,
2013-02-04 01:02:00,28.0,-99.9,-100.00,West,259,1.0,-999.0,-999,-99.99,,,-99.99,,2013-02-04 07:02:00,
2013-02-04 01:11:00,27.0,-99.9,-100.00,North,-999,0.0,-999.0,-999,-99.99,,,-99.99,,2013-02-04 07:11:00,
2013-02-04 01:22:00,26.0,-99.9,-100.00,North,-999,0.0,-999.0,-999,-99.99,,,-99.99,,2013-02-04 07:22:00,
2013-02-04 01:32:00,24.0,-99.9,-100.00,North,-999,2.0,-999.0,-999,-99.99,,,-99.99,,2013-02-04 07:32:00,
2013-02-04 01:52:00,23.0,-99.9,-100.00,North,2,2.0,-999.0,-999,-99.99,,,-99.99,,2013-02-04 07:52:00,
2013-02-04 02:01:00,23.0,-99.9,-100.00,North,0,0.0,-999.0,-999,-99.99,,,-99.99,,2013-02-04 08:01:00,
2013-02-04 02:11:00,22.0,-99.9,-100.00,North,0,0.0,-999.0,-999,-99.99,,,-99.99,,2013-02-04 08:11:00,
2013-02-04 02:22:00,22.0,-99.9,-100.00,North,-999,0.0,-999.0,-999,-99.99,,,-99.99,,2013-02-04 08:22:00,
2013-02-04 02:32:00,21.0,-99.9,-100.00,North,0,0.0,-999.0,-999,-99.99,,,-99.99,,2013-02-04 08:32:00,
2013-02-04 02:42:00,20.0,-99.9,-100.00,North,10,1.0,-999.0,-999,-99.99,,,-99.99,,2013-02-04 08:42:00,
2013-02-04 02:52:00,18.0,-99.9,-100.00,North,4,0.0,-999.0,-999,-99.99,,,-99.99,,2013-02-04 08:52:00,
2013-02-04 03:02:00,18.0,-99.9,-100.00,North,4,0.0,-999.0,-999,-99.99,,,-99.99,,2013-02-04 09:02:00,
2013-02-04 03:11:00,18.0,-99.9,-100.00,NNW,342,2.0,-999.0,-999,-99.99,,,-99.99,,2013-02-04 09:11:00,
2013-02-04 03:22:00,18.0,-99.9,-100.00,North,-999,0.0,-999.0,-999,-99.99,,,-99.99,,2013-02-04 09:22:00,
2013-02-04 03:32:00,18.0,-99.9,-100.00,North,0,0.0,-999.0,-999,-99.99,,,-99.99,,2013-02-04 09:32:00,
2013-02-04 03:42:00,18.0,-99.9,-100.00,North,0,0.0,-999.0,-999,-99.99,,,-99.99,,2013-02-04 09:42:00,
2013-02-04 03:52:00,18.0,-99.9,-100.00,North,0,0.0,-999.0,-999,-99.99,,,-99.99,,2013-02-04 09:52:00,
2013-02-04 04:02:00,18.0,-99.9,-100.00,North,0,0.0,-999.0,-999,-99.99,,,-99.99,,2013-02-04 10:02:00,
2013-02-04 04:12:00,18.0,-99.9,-100.00,North,0,0.0,-999.0,-999,-99.99,,,-99.99,,2013-02-04 10:12:00,
2013-02-04 04:22:00,18.0,-99.9,-100.00,North,0,0.0,-999.0,-999,-99.99,,,-99.99,,2013-02-04 10:22:00,
2013-02-04 04:32:00,18.0,-99.9,-100.00,North,0,0.0,-999.0,-999,-99.99,,,-99.99,,2013-02-04 10:32:00,
2013-02-04 04:42:00,18.0,-99.9,-100.00,NNW,341,1.0,-999.0,-999,-99.99,,,-99.99,,2013-02-04 10:42:00,
2013-02-04 04:52:00,18.0,-99.9,-100.00,North,0,0.0,-999.0,-999,-99.99,,,-99.99,,2013-02-04 10:52:00,
2013-02-04 05:02:00,18.0,-99.9,-100.00,North,0,0.0,-999.0,-999,-99.99,,,-99.99,,2013-02-04 11:02:00,
2013-02-04 05:12:00,18.0,-99.9,-100.00,North,0,0.0,-999.0,-999,-99.99,,,-99.99,,2013-02-04 11:12:00,
2013-02-04 05:22:00,18.0,-99.9,-100.00,North,-999,0.0,-999.0,-999,-99.99,,,-99.99,,2013-02-04 11:22:00,
2013-02-04 05:33:00,18.0,-99.9,-100.00,North,4,1.0,-999.0,-999,-99.99,,,-99.99,,2013-02-04 11:33:00,
2013-02-04 05:42:00,18.0,-99.9,-100.00,North,0,0.0,-999.0,-999,-99.99,,,-99.99,,2013-02-04 11:42:00,
2013-02-04 05:53:00,17.0,-99.9,-100.00,West,260,0.0,-999.0,-999,-99.99,,,-99.99,,2013-02-04 11:53:00,
2013-02-04 06:03:00,17.0,-99.9,-100.00,West,260,0.0,-999.0,-999,-99.99,,,-99.99,,2013-02-04 12:03:00,
2013-02-04 06:12:00,17.0,-99.9,-100.00,East,91,1.0,-999.0,-999,-99.99,,,-99.99,,2013-02-04 12:12:00,
2013-02-04 06:22:00,17.0,-99.9,-100.00,North,0,0.0,-999.0,-999,-99.99,,,-99.99,,2013-02-04 12:22:00,
2013-02-04 06:33:00,16.0,-99.9,-100.00,North,0,0.0,-999.0,-999,-99.99,,,-99.99,,2013-02-04 12:33:00,
2013-02-04 06:42:00,16.0,16.0,-100.00,North,0,0.0,-999.0,99,-99.99,,,-99.99,,2013-02-04 12:42:00,
2013-02-04 06:53:00,16.0,-99.9,-100.00,North,0,0.0,-999.0,-999,-99.99,,,-99.99,,2013-02-04 12:53:00,
2013-02-04 07:03:00,16.0,-99.9,-100.00,North,-999,0.0,-999.0,-999,-99.99,,,-99.99,,2013-02-04 13:03:00,
2013-02-04 07:13:00,16.0,-99.9,-100.00,North,0,0.0,-999.0,-999,-99.99,,,-99.99,,2013-02-04 13:13:00,
2013-02-04 07:22:00,16.0,-99.9,-100.00,North,0,0.0,-999.0,-999,-99.99,,,-99.99,,2013-02-04 13:22:00,
2013-02-04 07:33:00,16.0,-99.9,-100.00,North,-999,4.0,-999.0,-999,-99.99,,,-99.99,,2013-02-04 13:33:00,
2013-02-04 07:42:00,16.0,-99.9,-100.00,North,-999,4.0,-999.0,-999,-99.99,,,-99.99,,2013-02-04 13:42:00,
2013-02-04 07:52:00,16.0,-99.9,-100.00,North,0,0.0,-999.0,-999,-99.99,,,-99.99,,2013-02-04 13:52:00,
2013-02-04 08:03:00,16.0,-99.9,-100.00,North,-999,1.0,-999.0,-999,-99.99,,,-99.99,,2013-02-04 14:03:00,
2013-02-04 08:12:00,16.0,-99.9,-100.00,North,0,0.0,-999.0,-999,-99.99,,,-99.99,,2013-02-04 14:12:00,
2013-02-04 08:23:00,16.0,-99.9,-100.00,North,0,0.0,-999.0,-999,-99.99,,,-99.99,,2013-02-04 14:23:00,
2013-02-04 08:33:00,16.0,-99.9,-100.00,South,175,2.0,-999.0,-999,-99.99,,,-99.99,,2013-02-04 14:33:00,
2013-02-04 08:42:00,15.0,-99.9,-100.00,North,0,0.0,-999.0,-999,-99.99,,,-99.99,,2013-02-04 14:42:00,
2013-02-04 08:53:00,15.0,-99.9,-100.00,South,173,1.0,-999.0,-999,-99.99,,,-99.99,,2013-02-04 14:53:00,
2013-02-04 09:04:00,15.0,-99.9,-100.00,South,185,0.0,-999.0,-999,-99.99,,,-99.99,,2013-02-04 15:04:00,
2013-02-04 09:13:00,15.0,-99.9,-100.00,East,87,1.0,-999.0,-999,-99.99,,,-99.99,,2013-02-04 15:13:00,
2013-02-04 09:24:00,15.0,-99.9,-100.00,North,0,0.0,-999.0,-999,-99.99,,,-99.99,,2013-02-04 15:24:00,
2013-02-04 09:33:00,15.0,-99.9,-100.00,North,0,0.0,-999.0,-999,-99.99,,,-99.99,,2013-02-04 15:33:00,
2013-02-04 09:43:00,15.0,-99.9,-100.00,North,0,0.0,-999.0,-999,-99.99,,,-99.99,,2013-02-04 15:43:00,
2013-02-04 09:53:00,15.0,-99.9,-100.00,North,0,0.0,-999.0,-999,-99.99,,,-99.99,,2013-02-04 15:53:00,
2013-02-04 10:03:00,15.0,-99.9,-100.00,North,0,0.0,-999.0,-999,-99.99,,,-99.99,,2013-02-04 16:03:00,
2013-02-04 10:11:00,16.0,-99.9,-100.00,North,0,0.0,-999.0,-999,-99.99,,,-99.99,,2013-02-04 16:11:00,
2013-02-04 10:23:00,16.0,-99.9,-100.00,North,0,0.0,-999.0,-999,-99.99,,,-99.99,,2013-02-04 16:23:00,
2013-02-04 10:33:00,16.0,-99.9,-100.00,North,0,0.0,-999.0,-999,-99.99,,,-99.99,,2013-02-04 16:33:00,
2013-02-04 11:42:00,17.0,-99.9,-100.00,North,0,0.0,-999.0,-999,-99.99,,,-99.99,,2013-02-04 17:42:00,
2013-02-04 11:52:00,17.0,-99.9,-100.00,North,0,0.0,-999.0,-999,-99.99,,,-99.99,,2013-02-04 17:52:00,
2013-02-04 12:03:00,17.0,16.0,-100.00,North,0,0.0,-999.0,96,-99.99,,,-99.99,,2013-02-04 18:03:00,
2013-02-04 12:11:00,18.0,17.0,-100.00,North,0,0.0,-999.0,96,-99.99,,,-99.99,,2013-02-04 18:11:00,
2013-02-04 12:22:00,18.0,17.0,-100.00,North,0,0.0,-999.0,96,-99.99,,,-99.99,,2013-02-04 18:22:00,
2013-02-04 12:32:00,18.0,17.0,-100.00,North,0,0.0,-999.0,94,-99.99,,,-99.99,,2013-02-04 18:32:00,
2013-02-04 12:42:00,18.0,17.0,-100.00,North,0,0.0,-999.0,94,-99.99,,,-99.99,,2013-02-04 18:42:00,
2013-02-04 12:52:00,19.0,17.0,-100.00,North,0,0.0,-999.0,94,-99.99,,,-99.99,,2013-02-04 18:52:00,
2013-02-04 13:02:00,19.0,18.0,-100.00,North,0,0.0,-999.0,93,-99.99,,,-99.99,,2013-02-04 19:02:00,
2013-02-04 13:11:00,21.0,18.0,-100.00,North,0,0.0,-999.0,90,-99.99,,,-99.99,,2013-02-04 19:11:00,
2013-02-04 13:22:00,20.0,18.0,-100.00,North,0,0.0,-999.0,91,-99.99,,,-99.99,,2013-02-04 19:22:00,
2013-02-04 13:32:00,20.0,19.0,-100.00,North,0,0.0,-999.0,96,-99.99,,,-99.99,,2013-02-04 19:32:00,
2013-02-04 13:42:00,20.0,20.0,-100.00,North,0,0.0,-999.0,97,-99.99,,,-99.99,,2013-02-04 19:42:00,
2013-02-04 13:51:00,20.0,20.0,-100.00,North,0,0.0,-999.0,98,-99.99,,,-99.99,,2013-02-04 19:51:00,
2013-02-04 14:02:00,20.0,-99.9,-100.00,North,0,0.0,-999.0,-999,-99.99,,,-99.99,,2013-02-04 20:02:00,
2013-02-04 14:12:00,20.0,20.0,-100.00,North,0,0.0,-999.0,98,-99.99,,,-99.99,,2013-02-04 20:12:00,
2013-02-04 14:22:00,20.0,20.0,-100.00,North,-999,0.0,-999.0,97,-99.99,,,-99.99,,2013-02-04 20:22:00,
2013-02-04 14:32:00,21.0,20.0,-100.00,WNW,291,0.0,-999.0,99,-99.99,,,-99.99,,2013-02-04 20:32:00,
2013-02-04 14:42:00,21.0,20.0,-100.00,WNW,291,0.0,-999.0,99,-99.99,,,-99.99,,2013-02-04 20:42:00,
2013-02-04 14:52:00,21.0,-99.9,-100.00,North,0,0.0,-999.0,-999,-99.99,,,-99.99,,2013-02-04 20:52:00,
2013-02-04 15:02:00,21.0,21.0,-100.00,West,279,2.0,-999.0,97,-99.99,,,-99.99,,2013-02-04 21:02:00,
2013-02-04 15:12:00,21.0,-99.9,-100.00,North,0,0.0,-999.0,-999,-99.99,,,-99.99,,2013-02-04 21:12:00,
2013-02-04 15:23:00,21.0,-99.9,-100.00,North,0,0.0,-999.0,-999,-99.99,,,-99.99,,2013-02-04 21:23:00,
2013-02-04 15:32:00,21.0,-99.9,-100.00,North,0,0.0,-999.0,-999,-99.99,,,-99.99,,2013-02-04 21:32:00,
2013-02-04 15:43:00,21.0,-99.9,-100.00,North,0,0.0,-999.0,-999,-99.99,,,-99.99,,2013-02-04 21:43:00,
2013-02-04 15:52:00,21.0,-99.9,-100.00,North,0,0.0,-999.0,-999,-99.99,,,-99.99,,2013-02-04 21:52:00,
2013-02-04 16:03:00,21.0,-99.9,-100.00,SW,228,1.0,-999.0,-999,-99.99,,,-99.99,,2013-02-04 22:03:00,
2013-02-04 16:12:00,21.0,-99.9,-100.00,North,0,0.0,-999.0,-999,-99.99,,,-99.99,,2013-02-04 22:12:00,
2013-02-04 16:22:00,21.0,-99.9,-100.00,North,0,0.0,-999.0,-999,-99.99,,,-99.99,,2013-02-04 22:22:00,
2013-02-04 16:33:00,22.0,-99.9,-100.00,SSW,211,0.0,-999.0,-999,-99.99,,,-99.99,,2013-02-04 22:33:00,
2013-02-04 16:42:00,22.0,-99.9,-100.00,North,0,0.0,-999.0,-999,-99.99,,,-99.99,,2013-02-04 22:42:00,
2013-02-04 16:52:00,22.0,-99.9,-100.00,North,0,0.0,-999.0,-999,-99.99,,,-99.99,,2013-02-04 22:52:00,
2013-02-04 17:02:00,22.0,-99.9,-100.00,North,0,0.0,-999.0,-999,-99.99,,,-99.99,,2013-02-04 23:02:00,
2013-02-04 17:11:00,22.0,-99.9,-100.00,North,0,0.0,-999.0,-999,-99.99,,,-99.99,,2013-02-04 23:11:00,
2013-02-04 17:22:00,22.0,-99.9,-100.00,North,0,0.0,-999.0,-999,-99.99,,,-99.99,,2013-02-04 23:22:00,
2013-02-04 17:32:00,22.0,-99.9,-100.00,SSW,193,1.0,-999.0,-999,-99.99,,,-99.99,,2013-02-04 23:32:00,
2013-02-04 17:42:00,22.0,-99.9,-100.00,North,0,0.0,-999.0,-999,-99.99,,,-99.99,,2013-02-04 23:42:00,
2013-02-04 17:53:00,22.0,-99.9,-100.00,North,0,0.0,-999.0,-999,-99.99,,,-99.99,,2013-02-04 23:53:00,
2013-02-04 18:02:00,22.0,-99.9,-100.00,North,0,0.0,-999.0,-999,-99.99,,,-99.99,,2013-02-05 00:02:00,
2013-02-04 18:12:00,22.0,-99.9,-100.00,North,0,0.0,-999.0,-999,-99.99,,,-99.99,,2013-02-05 00:12:00,
2013-02-04 18:22:00,22.0,-99.9,-100.00,North,0,0.0,-999.0,-999,-99.99,,,-99.99,,2013-02-05 00:22:00,
2013-02-04 18:32:00,22.0,-99.9,-100.00,North,0,0.0,-999.0,-999,-99.99,,,-99.99,,2013-02-05 00:32:00,
2013-02-04 18:42:00,22.0,-99.9,-100.00,North,0,0.0,-999.0,-999,-99.99,,,-99.99,,2013-02-05 00:42:00,
2013-02-04 18:52:00,22.0,-99.9,-100.00,North,0,0.0,-999.0,-999,-99.99,,,-99.99,,2013-02-05 00:52:00,
2013-02-04 19:02:00,23.0,-99.9,-100.00,North,0,0.0,-999.0,-999,-99.99,,,-99.99,,2013-02-05 01:02:00,
2013-02-04 19:12:00,22.0,-99.9,-100.00,North,0,0.0,-999.0,-999,-99.99,,,-99.99,,2013-02-05 01:12:00,
2013-02-04 19:22:00,22.0,-99.9,-100.00,SSW,207,2.0,-999.0,-999,-99.99,,,-99.99,,2013-02-05 01:22:00,
2013-02-04 19:33:00,22.0,-99.9,-100.00,North,0,0.0,-999.0,-999,-99.99,,,-99.99,,2013-02-05 01:33:00,
2013-02-04 19:42:00,22.0,-99.9,-100.00,North,0,0.0,-999.0,-999,-99.99,,,-99.99,,2013-02-05 01:42:00,
2013-02-04 19:52:00,22.0,-99.9,-100.00,North,0,0.0,-999.0,-999,-99.99,,,-99.99,,2013-02-05 01:52:00,
2013-02-04 20:02:00,22.0,-99.9,-100.00,North,0,0.0,-999.0,-999,-99.99,,,-99.99,,2013-02-05 02:02:00,
2013-02-04 20:12:00,22.0,-99.9,-100.00,North,0,0.0,-999.0,-999,-99.99,,,-99.99,,2013-02-05 02:12:00,
2013-02-04 20:22:00,22.0,-99.9,-100.00,North,0,0.0,-999.0,-999,-99.99,,,-99.99,,2013-02-05 02:22:00,
2013-02-04 20:32:00,22.0,-99.9,-100.00,North,0,0.0,-999.0,-999,-99.99,,,-99.99,,2013-02-05 02:32:00,
2013-02-04 20:42:00,22.0,-99.9,-100.00,North,0,0.0,-999.0,-999,-99.99,,,-99.99,,2013-02-05 02:42:00,
2013-02-04 20:52:00,22.0,-99.9,-100.00,North,0,0.0,-999.0,-999,-99.99,,,-99.99,,2013-02-05 02:52:00,
2013-02-04 21:02:00,23.0,-99.9,-100.00,North,0,0.0,-999.0,-999,-99.99,,,-99.99,,2013-02-05 03:02:00,
2013-02-04 21:12:00,23.0,-99.9,-100.00,South,189,0.0,-999.0,-999,-99.99,,,-99.99,,2013-02-05 03:12:00,
2013-02-04 21:22:00,23.0,-99.9,-100.00,South,191,1.0,-999.0,-999,-99.99,,,-99.99,,2013-02-05 03:22:00,
2013-02-04 21:32:00,22.0,-99.9,-100.00,North,0,0.0,-999.0,-999,-99.99,,,-99.99,,2013-02-05 03:32:00,
2013-02-04 21:42:00,22.0,-99.9,-100.00,North,0,0.0,-999.0,-999,-99.99,,,-99.99,,2013-02-05 03:42:00,
2013-02-04 21:52:00,23.0,-99.9,-100.00,SSE,163,0.0,-999.0,-999,-99.99,,,-99.99,,2013-02-05 03:52:00,
2013-02-04 22:02:00,23.0,-99.9,-100.00,North,0,0.0,-999.0,-999,-99.99,,,-99.99,,2013-02-05 04:02:00,
2013-02-04 22:11:00,23.0,-99.9,-100.00,North,0,0.0,-999.0,-999,-99.99,,,-99.99,,2013-02-05 04:11:00,
2013-02-04 22:22:00,23.0,-99.9,-100.00,North,0,0.0,-999.0,-999,-99.99,,,-99.99,,2013-02-05 04:22:00,
2013-02-04 22:32:00,23.0,-99.9,-100.00,North,0,0.0,-999.0,-999,-99.99,,,-99.99,,2013-02-05 04:32:00,
2013-02-04 22:42:00,23.0,-99.9,-100.00,North,0,0.0,-999.0,-999,-99.99,,,-99.99,,2013-02-05 04:42:00,
2013-02-04 22:52:00,23.0,-99.9,-100.00,North,0,0.0,-999.0,-999,-99.99,,,-99.99,,2013-02-05 04:52:00,
2013-02-04 23:03:00,23.0,-99.9,-100.00,North,0,0.0,-999.0,-999,-99.99,,,-99.99,,2013-02-05 05:03:00,
2013-02-04 23:12:00,23.0,-99.9,-100.00,South,170,0.0,-999.0,-999,-99.99,,,-99.99,,2013-02-05 05:12:00,
2013-02-04 23:22:00,23.0,-99.9,-100.00,North,0,0.0,-999.0,-999,-99.99,,,-99.99,,2013-02-05 05:22:00,
2013-02-04 23:32:00,24.0,-99.9,-100.00,North,0,0.0,-999.0,-999,-99.99,,,-99.99,,2013-02-05 05:32:00,
2013-02-04 23:42:00,24.0,-99.9,-100.00,North,0,0.0,-999.0,-999,-99.99,,,-99.99,,2013-02-05 05:42:00,
2013-02-04 23:52:00,24.0,-99.9,-100.00,North,0,0.0,-999.0,-999,-99.99,,,-99.99,,2013-02-05 05:52:00,